sat.trackr.live / text

‹ back to catalog

STARLINK-34630

NORAD 64948 · 2025-158S

PAYLOAD ACTIVE UNKNOWN

§ Identity

Operator
Country
US
Launch date
2025-07-27
Launch site
AFWTR
Launch vehicle
Mass (kg)
RCS (m²)

Purposes: comms

External: N2YO · Heavens-Above · Gunter

§ Orbital elements

Epoch: 2026-05-25T03:21:08.683776Z

Period
95.64 min
Inclination
97.4505°
Eccentricity
0.0002762
Mean motion
15.05656513 rev/d
Perigee alt
547.6 km
Apogee alt
551.4 km
Semi-major
6,927.6 km
B*
2.5845e-4
RAAN
9.1302°
Arg perigee
86.9039°
Mean anomaly
273.2504°
Rev number
4,686

§ Raw data

STARLINK-346301 64948U 25158S   26145.13968384  .00003673  00000+0  25845-3 0  99972 64948  97.4505   9.1302 0002762  86.9039 273.2504 15.05656513 46864

JSON: /api/v1/satellites/64948 · /tle

For live sub-satellite position, see the globe view (requires WebGL).

§ Visibility from observer

Set your observer location to see the next 7 days of passes ≥ 10°. The values pass through the URL so the page stays shareable.

No JS? Fill the form by hand. The geolocation button needs JavaScript.